Zurück zum Katalog

ARIANE 44L DEB

LostHEO
NORAD 33588·DEBRIS·🇫🇷 France

Gestartet Jan 15, 1991 von Guiana Space Centre

Loading…

Nächste Überflüge (nächste 24 Stunden)

TLE

VeraltetSource: Space-Track

Epoche: Aug 27, 2025, 07:03 UTC

1 33588U 91003R   25239.29438904 -.00000280  00000-0 -18357-2 0  9998
2 33588   7.0790 153.7463 6830717 237.2609 332.4423  2.67584899131130

Verfolge ARIANE 44L DEB in Echtzeit mit AllMySat

Download on the App Store